Regional Weather Roundup
Issued by NWS Kansas City/Pleasant Hill, MO

Home | Current Version | Previous Version | Graphics & Text | Print | Product List | Glossary Off
Versions: 1 2 3 4 5 6 7 8 9 10 11 12 13 14 15 16 17 18 19 20 21 22 23 24 25 26 27 28 29 30 31 32 33 34 35 36 37 38 39 40 41 42 43 44 45 46 47 48 49 50

000
ASUS43 KEAX 022311
RWREAX

WEATHER ROUNDUP FOR EASTERN KANSAS AND NORTHWEST MISSOURI
NATIONAL WEATHER SERVICE KANSAS CITY/PLEASANT HILL MO
600 PM CDT TUE SEP 02 2014

KSZ040-057-103>105-MOZ028-029-037-043-030000-
...KANSAS CITY METROPOLITAN AREA...

CITY           SKY/WX    TMP DP  RH WIND       PRES   REMARKS
K.C. INTL      MOSUNNY   80  68  66 S8        29.95S
K.C. DOWNTOWN  SUNNY     83  66  56 VRB6      29.93F
LEES SUMMIT    SUNNY     80  69  69 SW3       29.95S
OLATHE - IXD   SUNNY     81  68  64 VRB3      29.95F
OLATHE - OJC   MOSUNNY   79  68  69 S6        29.95S
LAWRENCE       SUNNY     82  66  58 SE3       29.94S

$$

MOZ001>008-011>017-020>025-030>033-038>040-044>046-053-054-030000-
...NORTHERN AND CENTRAL MISSOURI...

CITY           SKY/WX    TMP DP  RH WIND       PRES   REMARKS
ST. JOSEPH     SUNNY     84  64  50 CALM      29.93F
MOSBY            N/A     81  64  57 CALM      29.93S
WHITEMAN AFB   MOSUNNY   79  70  74 W5        29.95F
CLINTON        CLOUDY    79  72  78 CALM      29.97S
SEDALIA        MOSUNNY   80  70  71 S5        29.96F
WARSAW         NOT AVBL
CHILLICOTHE      N/A     84  64  50 CALM      29.94F
KIRKSVILLE     MOSUNNY   78  65  63 W5        29.95S

$$

MOZ041-047>049-056>058-063>065-088>090-097-030000-
...EASTERN AND SOUTHERN MISSOURI...

CITY           SKY/WX    TMP DP  RH WIND       PRES   REMARKS
ST. LOUIS INTL PTSUNNY   82  68  62 NW6       29.94F
SPIRIT OF STL  PTSUNNY   81  67  62 NW5       29.93F
COLUMBIA       MOSUNNY   81  69  67 NW5       29.96S
JEFFERSON CITY MOSUNNY   82  69  64 W5        29.94S
MEXICO         MOSUNNY   84  70  61 W5        29.95S
HANNIBAL       MOSUNNY   82  61  47 W6        29.94S
ROLLA          PTSUNNY   78  66  66 NW3       29.96S
LEBANON        MOSUNNY   79  64  61 NW5       29.99R
OSAGE BEACH    MOSUNNY   79  66  65 NW6       29.96F
SPRINGFIELD    MOSUNNY   81  65  58 NE6       29.97S
BRANSON        PTSUNNY   77  68  73 N5        29.98R
NEVADA         SUNNY     82  66  57 N5        29.96S
JOPLIN         SUNNY     79  67  66 SW5       29.96S
WEST PLAINS    CLOUDY    78  65  63 N7        29.99R

$$

IAZ060-094-KSZ022-034>040-054-083-096-NEZ052-066-093-030000-
...KANSAS...SOUTHEAST NEBRASKA AND IOWA...

CITY           SKY/WX    TMP DP  RH WIND       PRES   REMARKS
TOPEKA         SUNNY     86  66  51 VRB3      29.93F
MANHATTAN      SUNNY     86  67  52 S6        29.91F
EMPORIA        SUNNY     84  67  56 SE8       29.93F
CHANUTE        SUNNY     84  66  54 S9        29.94S
WICHITA        MOSUNNY   86  67  52 SE10      29.92S
OMAHA          MOSUNNY   82  54  37 CALM      29.93F
LINCOLN        SUNNY     83  58  42 N6        29.94F
FALLS CITY     SUNNY     85  61  44 N3        29.92F
LAMONI         SUNNY     79  60  52 NW8       29.94F
DES MOINES     MOSUNNY   79  59  50 W8        29.92F

$$




USA.gov is the U.S. government's official web portal to all federal, state and local government web resources and services.